SILO ALERT LOG
| Silo ID | Alert Type | Alert Message | Silo Type | Points | Depth (mm) | Strength | Temperature (°C) | Humidity (%) | Height (mm) | Volume (㎥) | Weight (t) | Flag | Time |
|---|---|---|---|---|---|---|---|---|---|---|---|---|---|
| DJSSD12 | Temperature | 온도센서 상태 이상 | 호퍼 | 0 | 11350 | 0 | -999 | -999 | -120 | 0 | 0 | 31 | 2024-01-11 14:39:24.000 |
| DJHNR12 | Humidity | 습도센서 측정값이 80% 초과 | 호퍼 | 0 | 10500 | 0 | 6 | 82.8 | -120 | 0 | 0 | 31 | 2024-01-11 14:39:23.000 |
| DJSAD01 | Humidity | 습도센서 측정값이 80% 초과 | 평 | 466 | 1455 | 7345 | 2.4 | 87.4 | 7324 | 303.201 | 191.684 | 0 | 2024-01-11 13:39:40.000 |
| DJSAD03 | Humidity | 습도센서 측정값이 80% 초과 | 평 | 431 | 1267 | 5647 | 3.7 | 84.5 | 7512 | 310.99 | 196.608 | 0 | 2024-01-11 13:39:40.000 |
| DJSAD05 | Humidity | 습도센서 측정값이 80% 초과 | 평 | 489 | 891 | 15291 | 3 | 80.2 | 7888 | 326.562 | 206.452 | 11 | 2024-01-11 13:39:39.000 |
| DJSAD02 | Humidity | 습도센서 측정값이 80% 초과 | 평 | 389 | 1137 | 4290 | 2.8 | 87.1 | 7642 | 316.369 | 200.008 | 11 | 2024-01-11 13:39:38.000 |
| DJSAD08 | Humidity | 습도센서 측정값이 80% 초과 | 평 | 8 | 9379 | 3776 | 13.8 | 81.1 | -1799 | -256.113 | 0 | 12 | 2024-01-11 13:39:38.000 |
| DJSAD12 | Humidity | 습도센서 측정값이 80% 초과 | 평 | 0 | 7700 | 0 | 4.4 | 87.7 | -120 | -17.075 | 0 | 31 | 2024-01-11 13:39:33.000 |
| DJSSD04 | Temperature | 온도센서 상태 이상 | 평 | 0 | 8200 | 0 | -999 | -999 | -120 | -16.702 | 0 | 31 | 2024-01-11 13:39:33.000 |
| DJSSD05 | Temperature | 온도센서 측정값이 0도 미만 | 평 | 845 | 2552 | 4878 | -45.4 | 43.5 | 5527 | 769.328 | 486.369 | 0 | 2024-01-11 13:39:32.000 |
| DJHNR01 | Humidity | 습도센서 측정값이 80% 초과 | 호퍼 | 466 | 3666 | 3575 | 8 | 99.9 | 11713 | 520.443 | 329.024 | 13 | 2024-01-11 13:39:32.000 |
| DJSSD01 | Humidity | 습도센서 측정값이 80% 초과 | 평 | 793 | 2577 | 4743 | 6.1 | 83.4 | 5502 | 765.839 | 484.163 | 0 | 2024-01-11 13:39:32.000 |
| DJDJD04 | Humidity | 습도센서 측정값이 80% 초과 | 평 | 280 | 4201 | 4426 | 5 | 81.5 | 3478 | 421.466 | 266.451 | 11 | 2024-01-11 13:39:32.000 |
| DJSAD18 | Humidity | 습도센서 측정값이 80% 초과 | 평 | 119 | 1406 | 5827 | 5.3 | 80.8 | 6173 | 614.781 | 388.664 | 11 | 2024-01-11 13:39:31.000 |
| DJSSD09 | Temperature | 온도센서 측정값이 0도 미만 | 평 | 121 | 2873 | 2710 | -45.4 | 0 | 4806 | 668.973 | 422.924 | 11 | 2024-01-11 13:39:31.000 |
| DJDJD01 | Humidity | 습도센서 측정값이 80% 초과 | 평 | 90 | 6771 | 3934 | 3.8 | 81.2 | 908 | 110.019 | 69.554 | 0 | 2024-01-11 13:39:30.000 |
| DJHNR12 | Humidity | 습도센서 측정값이 80% 초과 | 호퍼 | 0 | 10500 | 0 | 5.7 | 82.8 | -120 | 0 | 0 | 31 | 2024-01-11 13:39:24.000 |
| DJSSD12 | Temperature | 온도센서 상태 이상 | 호퍼 | 0 | 11350 | 0 | -999 | -999 | -120 | 0 | 0 | 31 | 2024-01-11 13:39:24.000 |
| DJHNR03 | Temperature | 온도센서 상태 이상 | 호퍼 | 0 | 15500 | 0 | -999 | -999 | -119 | 0 | 0 | 31 | 2024-01-11 13:39:23.000 |
| DJSAD01 | Humidity | 습도센서 측정값이 80% 초과 | 평 | 474 | 1552 | 7380 | 2 | 88 | 7227 | 299.2 | 189.154 | 0 | 2024-01-11 12:39:40.000 |
[첫 페이지] [9996] [9997] [9998] [9999] 10000 [10001] [10002] [10003] [10004] [마지막 페이지]